Weather History for Delta, CO

Change the Weather History Date:

Monday, July 23, 2012

  Actual Average (KMTJ) Record (KMTJ)
Temperature  
Mean Temperature 80 °F 74 °F  
Max Temperature 97 °F 90 °F 98 °F (2000)
Min Temperature 63 °F 58 °F 53 °F (2000)
Degree Days  
Heating Degree Days 0 0  
Month to date heating degree days 0  
Since 1 June heating degree days 39  
Since 1 July heating degree days 0  
Cooling Degree Days 15 9  
Month to date cooling degree days 199  
Year to date cooling degree days 351  
Since 1 June cooling degree days 334  
Growing Degree Days 30 (Base 50)    
Moisture  
Dew Point 49 °F    
Average Humidity 38    
Maximum Humidity 73    
Minimum Humidity 14    
Precipitation  
Precipitation 0.00 in 0.04 in 0.05 in (1998)
Month to date precipitation 0.63  
Year to date precipitation 5.70  
Sea Level Pressure  
Sea Level Pressure 30.18 in    
Wind  
Wind Speed 3 mph ()    
Max Wind Speed 21 mph    
Max Gust Speed 31 mph    
Visibility 10.0 miles    
Events Thunderstorm    
T = Trace of Precipitation, MM = Missing Value Source: Averaged Metar Reports

Daily Weather History Graph

Daily Weather History Graph

Search for Another Location

Airport:

Trip Planner

Search our weather history database for the weather conditions in past years. The results will help you decide how hot, cold, wet, or windy it might be!

Date:

Astronomy

Jul. 23, 2012 Rise Set
Actual Time 6:06 AM MDT 8:30 PM MDT
Civil Twilight 5:35 AM MDT 9:01 PM MDT
Nautical Twilight 4:58 AM MDT 9:38 PM MDT
Astronomical Twilight 4:16 AM MDT 10:19 PM MDT
Moon 10:56 AM MDT (7/23) 10:51 PM MDT (7/23)
Length of Visible Light 15h 25m
Length of Day
14h 24m
Waxing Crescent, 22% of the Moon is Illuminated
Jul 23
Waxing Crescent
Jul 26
First Quarter
Aug 1
Full
Aug 9
Last Quarter
Aug 17
New

Hourly Weather History & Observations

Time (MDT) Temp. Dew Point Humidity Pressure Visibility Wind Dir Wind Speed Gust Speed Precip Events Conditions
12:15 AM 73.4 °F 55.2 °F 53% 30.23 in 10.0 mi Calm Calm - N/A   Clear
12:35 AM 73.2 °F 55.9 °F 55% 30.23 in 10.0 mi Calm Calm - N/A   Clear
1:15 AM 73.8 °F 54.5 °F 51% 30.23 in 10.0 mi Calm Calm - N/A   Clear
1:35 AM 72.5 °F 55.4 °F 55% 30.23 in 10.0 mi Calm Calm - N/A   Clear
1:55 AM 72.1 °F 55.2 °F 55% 30.23 in 10.0 mi Calm Calm - N/A   Clear
2:15 AM 72.1 °F 55.8 °F 56% 30.23 in 10.0 mi Calm Calm - N/A   Clear
2:35 AM 70.7 °F 56.8 °F 61% 30.22 in 10.0 mi Calm Calm - N/A   Clear
2:55 AM 70.2 °F 55.0 °F 59% 30.22 in 10.0 mi NNE 5.8 mph - N/A   Clear
3:15 AM 70.3 °F 55.2 °F 59% 30.22 in 10.0 mi NNE 5.8 mph - N/A   Clear
3:35 AM 70.7 °F 53.4 °F 54% 30.22 in 10.0 mi ENE 3.5 mph - N/A   Clear
3:55 AM 69.6 °F 52.7 °F 55% 30.22 in 10.0 mi NE 4.6 mph - N/A   Clear
4:15 AM 68.9 °F 52.2 °F 55% 30.22 in 10.0 mi Calm Calm - N/A   Clear
4:35 AM 68.2 °F 53.4 °F 59% 30.23 in 10.0 mi ESE 5.8 mph - N/A   Clear
4:55 AM 66.4 °F 54.5 °F 66% 30.23 in 10.0 mi Calm Calm - N/A   Clear
5:35 AM 65.7 °F 54.5 °F 67% 30.23 in 10.0 mi NNE 6.9 mph - N/A   Clear
5:55 AM 66.2 °F 53.8 °F 64% 30.24 in 10.0 mi East 4.6 mph - N/A   Clear
6:15 AM 64.2 °F 54.3 °F 70% 30.25 in 10.0 mi SE 3.5 mph - N/A   Clear
6:35 AM 63.7 °F 54.9 °F 73% 30.25 in 10.0 mi NNE 5.8 mph - N/A   Clear
6:55 AM 66.4 °F 54.0 °F 64% 30.25 in 10.0 mi Calm Calm - N/A   Clear
7:15 AM 69.4 °F 52.5 °F 55% 30.25 in 10.0 mi ENE 3.5 mph - N/A   Clear
7:35 AM 70.7 °F 51.8 °F 51% 30.25 in 10.0 mi East 5.8 mph - N/A   Clear
7:55 AM 72.5 °F 52.0 °F 48% 30.25 in 10.0 mi ENE 6.9 mph - N/A   Clear
8:15 AM 73.4 °F 51.8 °F 47% 30.25 in 10.0 mi East 3.5 mph - N/A   Clear
8:35 AM 74.7 °F 52.9 °F 46% 30.26 in 10.0 mi SSE 3.5 mph - N/A   Clear
9:15 AM 77.2 °F 52.2 °F 42% 30.25 in 10.0 mi South 3.5 mph - N/A   Clear
9:35 AM 78.1 °F 52.3 °F 41% 30.25 in 10.0 mi Calm Calm - N/A   Clear
9:55 AM 79.5 °F 51.1 °F 37% 30.23 in 10.0 mi Calm Calm - N/A   Clear
10:15 AM 80.4 °F 49.3 °F 34% 30.23 in 10.0 mi South 3.5 mph - N/A   Clear
10:35 AM 82.4 °F 48.9 °F 31% 30.22 in 10.0 mi Calm Calm - N/A   Clear
10:55 AM 84.2 °F 49.3 °F 30% 30.22 in 10.0 mi SSW 3.5 mph - N/A   Clear
11:15 AM 86.0 °F 49.1 °F 28% 30.21 in 10.0 mi South 4.6 mph - N/A   Scattered Clouds
11:35 AM 86.5 °F 47.8 °F 26% 30.21 in 10.0 mi SSW 3.5 mph - N/A   Scattered Clouds
11:55 AM 87.3 °F 46.9 °F 25% 30.19 in 10.0 mi South 3.5 mph - N/A   Clear
12:15 PM 88.5 °F 46.4 °F 23% 30.18 in 10.0 mi Calm Calm - N/A   Clear
12:35 PM 90.3 °F 46.8 °F 22% 30.16 in 10.0 mi Calm Calm - N/A   Clear
12:55 PM 92.3 °F 46.2 °F 20% 30.15 in 10.0 mi SW 3.5 mph - N/A   Clear
1:15 PM 92.8 °F 43.7 °F 18% 30.15 in 10.0 mi Calm Calm - N/A   Clear
1:35 PM 95.0 °F 41.5 °F 16% 30.13 in 10.0 mi SSW 4.6 mph - N/A   Clear
1:55 PM 94.3 °F 39.6 °F 15% 30.12 in 10.0 mi SE 5.8 mph - N/A   Clear
2:15 PM 95.7 °F 38.8 °F 14% 30.11 in 10.0 mi South 4.6 mph - N/A   Clear
2:35 PM 95.0 °F 41.4 °F 16% 30.11 in 10.0 mi South 9.2 mph - N/A Thunderstorm Clear
2:55 PM 96.6 °F 43.0 °F 16% 30.10 in 10.0 mi South 10.4 mph - N/A   Clear
3:15 PM 96.1 °F 42.8 °F 16% 30.10 in 10.0 mi SE 5.8 mph 16.1 mph N/A Thunderstorm Thunderstorm
3:35 PM 97.3 °F 44.8 °F 17% 30.10 in 10.0 mi SSE 19.6 mph 25.3 mph N/A Thunderstorm Clear
3:55 PM 95.7 °F 43.5 °F 17% 30.11 in 10.0 mi South 20.7 mph 28.8 mph N/A   Clear
4:15 PM 90.5 °F 47.1 °F 22% 30.13 in 10.0 mi South 19.6 mph 31.1 mph N/A Thunderstorm Clear
4:35 PM 89.8 °F 47.1 °F 23% 30.13 in 10.0 mi South 20.7 mph 29.9 mph N/A Thunderstorm Clear
4:55 PM 89.2 °F 46.2 °F 22% 30.13 in 10.0 mi South 13.8 mph 19.6 mph N/A   Scattered Clouds
5:15 PM 87.8 °F 43.0 °F 21% 30.12 in 10.0 mi South 8.1 mph 20.7 mph N/A Thunderstorm Scattered Clouds
5:35 PM 90.3 °F 38.7 °F 16% 30.11 in 10.0 mi SW 4.6 mph - N/A   Scattered Clouds
5:55 PM 89.1 °F 39.2 °F 17% 30.09 in 10.0 mi North 6.9 mph - N/A   Clear
6:15 PM 88.0 °F 42.1 °F 20% 30.09 in 10.0 mi NE 8.1 mph - N/A   Clear
6:35 PM 88.2 °F 41.0 °F 19% 30.10 in 10.0 mi NE 4.6 mph - N/A   Clear
6:55 PM 84.7 °F 48.2 °F 28% 30.11 in 10.0 mi South 11.5 mph - N/A   Clear
7:15 PM 82.8 °F 48.9 °F 31% 30.13 in 10.0 mi West 9.2 mph - N/A   Clear
7:35 PM 84.4 °F 45.1 °F 25% 30.13 in 10.0 mi West 5.8 mph 9.2 mph N/A   Clear
7:55 PM 85.1 °F 44.1 °F 24% 30.12 in 10.0 mi West 3.5 mph - N/A   Clear
8:15 PM 84.6 °F 44.8 °F 25% 30.12 in 10.0 mi WSW 3.5 mph - N/A   Clear
8:35 PM 83.5 °F 45.1 °F 26% 30.12 in 10.0 mi South 4.6 mph - N/A   Clear
8:55 PM 79.5 °F 49.6 °F 35% 30.13 in 10.0 mi SSE 3.5 mph - N/A   Clear
9:15 PM 79.7 °F 48.7 °F 34% 30.13 in 10.0 mi Calm Calm - N/A   Clear
9:35 PM 78.3 °F 50.9 °F 38% 30.15 in 10.0 mi ESE 5.8 mph - N/A   Scattered Clouds
9:55 PM 78.3 °F 50.0 °F 37% 30.15 in 10.0 mi Calm Calm - N/A   Scattered Clouds
10:15 PM 77.2 °F 51.8 °F 41% 30.17 in 7.0 mi Calm Calm - N/A   Scattered Clouds
10:35 PM 77.5 °F 51.4 °F 40% 30.18 in 10.0 mi SSW 3.5 mph - N/A   Mostly Cloudy
10:55 PM 77.7 °F 51.8 °F 40% 30.18 in 10.0 mi WSW 4.6 mph - N/A   Mostly Cloudy
11:15 PM 78.1 °F 51.3 °F 39% 30.19 in 10.0 mi Calm Calm - N/A   Overcast
11:35 PM 76.3 °F 53.6 °F 45% 30.19 in 10.0 mi Calm Calm - N/A   Mostly Cloudy
11:55 PM 75.9 °F 54.7 °F 48% 30.19 in 10.0 mi Calm Calm - N/A   Mostly Cloudy